WX1USN Weather Reports


time (UTC)temp
C
wind
direction
speed
KPH
gust
KPH
rain 1hr
cm
rain 24hr
cm
rain mn
cm
humidity
%
barometer
mb
20260503054506 8 296 1.6 8.0 0.00 0.15 0.00 70 1009.2
20260503043008 9 333 1.6 6.4 0.00 0.15 0.00 78 1009.7
20260503041507 9 284 0.0 4.8 0.00 0.15 0.00 78 1010.0
20260503034507 9 316 0.0 6.4 0.00 0.15 0.15 88 1010.0
20260503031508 9 294 0.0 0.0 0.00 0.15 0.15 88 1010.0
20260503024507 9 294 0.0 0.0 0.00 0.15 0.15 88 1010.1
20260503023007 9 294 0.0 0.0 0.00 0.15 0.15 88 1010.1
20260503021507 9 294 0.0 0.0 0.00 0.15 0.15 88 1010.0
20260503020010 9 221 0.0 0.0 0.00 0.15 0.15 87 1010.2
20260503014507 9 221 0.0 0.0 0.00 0.15 0.15 87 1010.2
20260503013007 9 221 0.0 0.0 0.00 0.15 0.15 87 1010.3
20260503011507 9 221 0.0 0.0 0.00 0.15 0.15 86 1010.4
20260503010010 10 236 1.6 4.8 0.00 0.15 0.15 86 1010.3
20260503004506 10 223 0.0 4.8 0.00 0.15 0.15 85 1010.2
20260503003007 10 224 0.0 4.8 0.00 0.15 0.15 85 1010.2
20260503001508 10 211 0.0 0.0 0.00 0.15 0.15 84 1010.2
20260503000011 10 207 0.0 0.0 0.00 0.15 0.15 83 1010.1
20260502234507 10 207 0.0 0.0 0.00 0.15 0.15 82 1010.2
20260502233008 10 207 0.0 0.0 0.00 0.15 0.15 81 1010.0
20260502231507 10 244 0.0 0.0 0.00 0.15 0.15 80 1010.1
20260502230010 10 290 0.0 0.0 0.00 0.15 0.15 80 1010.2
20260502224507 11 263 0.0 3.2 0.00 0.15 0.15 79 1010.1
20260502223007 11 209 1.6 12.9 0.00 0.15 0.15 79 1010.0
20260502221507 11 227 3.2 11.3 0.00 0.15 0.15 77 1010.0
20260502220010 11 200 3.2 8.0 0.00 0.15 0.15 76 1010.0
20260502214510 11 187 3.2 9.7 0.00 0.15 0.15 75 1010.0
20260502213007 11 218 4.8 12.9 0.00 0.15 0.15 74 1010.0
20260502211508 11 242 4.8 14.5 0.00 0.15 0.15 74 1009.9
20260502210011 11 212 4.8 11.3 0.00 0.15 0.15 75 1010.1
20260502204509 11 215 4.8 12.9 0.00 0.15 0.15 76 1010.1
20260502203007 11 175 3.2 12.9 0.00 0.15 0.15 78 1010.2
20260502201507 11 218 3.2 11.3 0.00 0.15 0.15 78 1010.3
20260502200011 11 238 3.2 9.7 0.00 0.15 0.15 77 1010.4
20260502191507 10 191 1.6 8.0 0.03 0.15 0.15 86 1010.6
20260502184508 9 238 3.2 11.3 0.08 0.15 0.15 87 1010.9
20260502183007 9 211 3.2 8.0 0.08 0.13 0.13 85 1010.9
20260502181507 10 163 1.6 6.4 0.08 0.13 0.13 86 1010.9
20260502151507 13 121 1.6 6.4 0.00 0.05 0.05 71 1011.7
20260502123006 10 254 0.0 6.4 0.00 0.03 0.03 78 1012.5
20260502121506 10 252 0.0 4.8 0.00 0.03 0.03 79 1012.1
20260502114506 8 246 0.0 3.2 0.00 0.03 0.03 83 1011.7
20260502113008 8 207 1.6 6.4 0.00 0.03 0.03 83 1011.7
20260502110008 8 200 0.0 0.0 0.00 0.03 0.03 83 1011.6
20260502104506 8 236 1.6 9.7 0.00 0.03 0.03 83 1011.6
20260502103008 7 189 0.0 8.0 0.00 0.03 0.03 83 1011.4
20260502101506 7 218 0.0 3.2 0.00 0.03 0.03 85 1011.0
20260502091506 8 218 0.0 0.0 0.03 0.03 0.03 85 1010.9
20260502070008 9 239 0.0 0.0 0.00 0.00 0.00 68 1011.2
20260502064505 9 220 0.0 6.4 0.00 0.00 0.00 68 1011.2
20260502063006 9 212 1.6 8.0 0.00 0.00 0.00 67 1011.2
20260502061506 10 262 0.0 3.2 0.00 0.00 0.00 67 1011.1